sat.trackr.live / text

‹ back to catalog

STARLINK-4494

NORAD 53558 · 2022-101AH

PAYLOAD ACTIVE UNKNOWN

§ Identity

Operator
Country
US
Launch date
2022-08-19
Launch site
AFETR
Launch vehicle
Mass (kg)
RCS (m²)

Purposes: comms

External: N2YO · Heavens-Above · Gunter

§ Orbital elements

Epoch: 2026-09-20T00:19:46.409376Z

Period
93.85 min
Inclination
53.1590°
Eccentricity
0.0001213
Mean motion
15.34392604 rev/d
Perigee alt
461.9 km
Apogee alt
463.6 km
Semi-major
6,840.9 km
B*
3.1164e-5
RAAN
256.1322°
Arg perigee
87.0108°
Mean anomaly
273.1033°
Rev number
22,651

§ Raw data

STARLINK-44941 53558U 22101AH  26263.01373159  .00000677  00000+0  31164-4 0  99982 53558  53.1590 256.1322 0001213  87.0108 273.1033 15.34392604226515

JSON: /api/v1/satellites/53558 · /tle

For live sub-satellite position, see the globe view (requires WebGL).

§ Visibility from observer

Set your observer location to see the next 7 days of passes ≥ 10°. The values pass through the URL so the page stays shareable.

No JS? Fill the form by hand. The geolocation button needs JavaScript.